EW0890 Weather Reports


time (UTC)temp
C
wind
direction
speed
KPH
gust
KPH
rain 1hr
cm
rain 24hr
cm
rain mn
cm
humidity
%
barometer
mb
20260902120515 23 252 1.6 4.8 0.00 0.00 0.00 86 1016.1
20260902120111 23 241 1.6 4.8 0.00 0.00 0.00 87 1016.1
20260902120036 23 261 1.6 4.8 0.00 0.00 0.00 87 1016.0
20260902115514 23 285 1.6 4.8 0.00 0.00 0.00 87 1016.1
20260902115017 23 278 1.6 4.8 0.00 0.00 0.00 87 1016.0
20260902114618 23 293 1.6 4.8 0.00 0.00 0.00 87 1016.1
20260902114534 23 281 1.6 4.8 0.00 0.00 0.00 87 1016.2
20260902114006 23 238 1.6 4.8 0.00 0.00 0.00 88 1016.0
20260902113503 23 238 1.6 4.8 0.00 0.00 0.00 88 1016.0
20260902113102 23 217 1.6 4.8 0.00 0.00 0.00 88 1016.0
20260902113018 23 283 1.6 4.8 0.00 0.00 0.00 88 1016.0
20260902112510 23 195 1.6 6.4 0.00 0.00 0.00 88 1016.0
20260902112009 23 287 1.6 6.4 0.00 0.00 0.00 88 1016.0
20260902111605 23 303 1.6 4.8 0.00 0.00 0.00 88 1016.0
20260902111518 23 285 1.6 4.8 0.00 0.00 0.00 88 1016.0
20260902111006 23 276 1.6 6.4 0.00 0.00 0.00 88 1015.9
20260902110506 23 269 1.6 6.4 0.00 0.00 0.00 88 1015.8
20260902110114 23 311 0.0 4.8 0.00 0.00 0.00 88 1015.7
20260902110017 23 288 0.0 4.8 0.00 0.00 0.00 88 1015.8
20260902105509 23 321 1.6 4.8 0.00 0.00 0.00 88 1015.6
20260902105006 23 306 0.0 4.8 0.00 0.00 0.00 88 1015.7
20260902104604 23 283 1.6 6.4 0.00 0.00 0.00 88 1015.6
20260902104514 23 257 1.6 6.4 0.00 0.00 0.00 88 1015.7
20260902104004 23 249 1.6 6.4 0.00 0.00 0.00 88 1015.6
20260902103503 22 260 1.6 8.0 0.00 0.00 0.00 88 1015.8
20260902103120 22 272 1.6 8.0 0.00 0.00 0.00 88 1015.7
20260902103013 22 279 1.6 8.0 0.00 0.00 0.00 88 1015.8
20260902102506 22 276 1.6 4.8 0.00 0.00 0.00 88 1015.8
20260902102007 22 275 1.6 3.2 0.00 0.00 0.00 88 1015.7
20260902101600 22 252 1.6 4.8 0.00 0.00 0.00 88 1015.7
20260902101518 22 261 1.6 3.2 0.00 0.00 0.00 88 1015.7
20260902101006 22 289 0.0 4.8 0.00 0.00 0.00 88 1015.9
20260902100508 22 283 1.6 4.8 0.00 0.00 0.00 88 1015.8
20260902100104 22 281 1.6 3.2 0.00 0.00 0.00 88 1015.8
20260902100018 22 243 1.6 3.2 0.00 0.00 0.00 88 1015.7
20260902095510 22 295 1.6 4.8 0.00 0.00 0.00 88 1015.7
20260902095005 22 283 0.0 4.8 0.00 0.00 0.00 87 1015.7
20260902094602 23 278 1.6 4.8 0.00 0.00 0.00 87 1015.8
20260902094518 23 286 1.6 4.8 0.00 0.00 0.00 87 1015.8
20260902094012 23 277 1.6 3.2 0.00 0.00 0.00 87 1015.8
20260902093508 23 291 1.6 3.2 0.00 0.00 0.00 87 1015.7
20260902093111 23 247 1.6 4.8 0.00 0.00 0.00 87 1015.7
20260902093009 23 281 1.6 4.8 0.00 0.00 0.00 87 1015.7
20260902092504 23 258 1.6 4.8 0.00 0.00 0.00 87 1015.5
20260902092004 23 271 1.6 4.8 0.00 0.00 0.00 87 1015.5
20260902091559 23 270 1.6 3.2 0.00 0.00 0.00 87 1015.6
20260902091533 23 266 1.6 3.2 0.00 0.00 0.00 87 1015.6
20260902091007 23 250 1.6 3.2 0.00 0.00 0.00 87 1015.7
20260902090511 23 279 1.6 3.2 0.00 0.00 0.00 87 1015.5
20260902090020 23 306 1.6 4.8 0.00 0.00 0.00 87 1015.4
20260902085509 22 244 1.6 4.8 0.00 0.00 0.00 87 1015.4
20260902085009 22 278 1.6 4.8 0.00 0.00 0.00 87 1015.3
20260902084601 22 260 1.6 3.2 0.00 0.00 0.00 88 1015.4
20260902084517 22 278 1.6 3.2 0.00 0.00 0.00 88 1015.3
20260902084010 22 282 1.6 3.2 0.00 0.00 0.00 87 1015.4
20260902083509 22 289 1.6 3.2 0.00 0.00 0.00 87 1015.3
20260902083059 23 0 0.0 3.2 0.00 0.00 0.00 87 1015.4
20260902083021 23 306 0.0 3.2 0.00 0.00 0.00 87 1015.4
20260902082506 23 263 0.0 4.8 0.00 0.00 0.00 87 1015.3
20260902082008 23 283 1.6 4.8 0.00 0.00 0.00 86 1015.3
20260902081559 23 0 1.6 4.8 0.00 0.00 0.00 86 1015.4
20260902081524 23 281 1.6 4.8 0.00 0.00 0.00 86 1015.4
20260902081006 23 273 1.6 4.8 0.00 0.00 0.00 86 1015.4
20260902080508 23 284 1.6 4.8 0.00 0.00 0.00 86 1015.3
20260902080100 23 280 0.0 4.8 0.00 0.00 0.00 86 1015.4
20260902080018 23 290 0.0 4.8 0.00 0.00 0.00 85 1015.3
20260902075507 23 266 1.6 4.8 0.00 0.00 0.00 85 1015.4
20260902075008 23 268 1.6 6.4 0.00 0.00 0.00 85 1015.4
20260902074612 23 274 1.6 6.4 0.00 0.00 0.00 85 1015.3
20260902074528 23 265 1.6 6.4 0.00 0.00 0.00 85 1015.4
20260902074012 23 303 1.6 4.8 0.00 0.00 0.00 85 1015.4
20260902073515 23 290 1.6 4.8 0.00 0.00 0.00 86 1015.5
20260902073104 23 278 1.6 3.2 0.00 0.00 0.00 86 1015.3
20260902073024 23 316 1.6 3.2 0.00 0.00 0.00 86 1015.3
20260902072510 23 285 1.6 3.2 0.00 0.00 0.00 86 1015.4
20260902072009 23 288 0.0 3.2 0.00 0.00 0.00 86 1015.4
20260902071604 23 281 0.0 3.2 0.00 0.00 0.00 86 1015.5
20260902071546 23 311 0.0 3.2 0.00 0.00 0.00 86 1015.5
20260902071014 23 267 0.0 1.6 0.00 0.00 0.00 86 1015.6
20260902070505 23 284 0.0 1.6 0.00 0.00 0.00 86 1015.6
20260902070103 23 288 0.0 3.2 0.00 0.00 0.00 86 1015.6
20260902070015 23 293 1.6 3.2 0.00 0.00 0.00 86 1015.7
20260902065511 23 281 0.0 3.2 0.00 0.00 0.00 86 1015.7
20260902065008 23 285 1.6 3.2 0.00 0.00 0.00 85 1015.6
20260902064602 23 288 0.0 4.8 0.00 0.00 0.00 85 1015.6
20260902064523 23 278 0.0 4.8 0.00 0.00 0.00 85 1015.6
20260902064012 23 285 0.0 4.8 0.00 0.00 0.00 85 1015.7
20260902063510 23 274 1.6 3.2 0.00 0.00 0.00 85 1015.8
20260902063059 23 264 1.6 3.2 0.00 0.00 0.00 85 1015.7
20260902063027 23 278 1.6 3.2 0.00 0.00 0.00 85 1015.7
20260902062510 24 288 1.6 3.2 0.00 0.00 0.00 85 1015.7
20260902062011 24 296 1.6 3.2 0.00 0.00 0.00 85 1015.8
20260902061558 24 269 1.6 3.2 0.00 0.00 0.00 85 1015.7
20260902061540 24 281 1.6 3.2 0.00 0.00 0.00 85 1015.8
20260902061012 24 279 1.6 3.2 0.00 0.00 0.00 85 1015.6
20260902060512 24 289 1.6 3.2 0.00 0.00 0.00 85 1015.6
20260902060119 24 291 0.0 3.2 0.00 0.00 0.00 86 1015.7
20260902060031 24 273 1.6 3.2 0.00 0.00 0.00 86 1015.8
20260902055511 24 269 1.6 3.2 0.00 0.00 0.00 86 1015.7
20260902055007 24 284 1.6 3.2 0.00 0.00 0.00 86 1015.7
20260902054601 24 288 0.0 1.6 0.00 0.00 0.00 87 1015.7
20260902054532 24 264 0.0 1.6 0.00 0.00 0.00 87 1015.6
20260902054007 24 298 0.0 3.2 0.00 0.00 0.00 87 1015.7
20260902053512 24 298 0.0 3.2 0.00 0.00 0.00 88 1015.8
20260902053106 23 288 0.0 3.2 0.00 0.00 0.00 89 1015.6
20260902053025 23 300 0.0 3.2 0.00 0.00 0.00 89 1015.6
20260902052511 23 282 0.0 3.2 0.00 0.00 0.00 90 1015.6
20260902052012 23 269 0.0 1.6 0.00 0.00 0.00 91 1015.6
20260902051557 23 0 0.0 0.0 0.00 0.00 0.00 91 1015.6
20260902051530 23 243 0.0 0.0 0.00 0.00 0.00 92 1015.7
20260902051015 23 239 0.0 0.0 0.00 0.00 0.00 92 1015.6
20260902050511 23 156 0.0 0.0 0.00 0.00 0.00 92 1015.7
20260902050106 23 0 0.0 0.0 0.00 0.00 0.00 91 1015.7
20260902050035 23 40 0.0 0.0 0.00 0.00 0.00 91 1015.7
20260902045511 23 40 0.0 0.0 0.00 0.00 0.00 91 1015.8
20260902045010 23 40 0.0 0.0 0.00 0.00 0.00 91 1015.6
20260902044603 23 0 0.0 0.0 0.00 0.00 0.00 91 1015.6
20260902044531 23 41 0.0 0.0 0.00 0.00 0.00 91 1015.6
20260902044012 24 41 0.0 0.0 0.00 0.00 0.00 91 1015.6
20260902043511 24 64 0.0 0.0 0.00 0.00 0.00 91 1015.6
20260902043111 24 0 0.0 0.0 0.00 0.00 0.00 90 1015.6
20260902043022 24 63 0.0 0.0 0.00 0.00 0.00 90 1015.5
20260902042513 24 63 0.0 0.0 0.00 0.00 0.00 90 1015.6
20260902042013 24 63 0.0 0.0 0.00 0.00 0.00 90 1015.6
20260902041600 24 0 0.0 0.0 0.00 0.00 0.00 90 1015.6
20260902041532 24 60 0.0 0.0 0.00 0.00 0.00 90 1015.6
20260902041013 24 60 0.0 0.0 0.00 0.00 0.00 90 1015.5
20260902040512 24 122 0.0 0.0 0.00 0.00 0.00 90 1015.6
20260902040108 24 0 0.0 0.0 0.00 0.00 0.00 90 1015.7
20260902040027 24 129 0.0 0.0 0.00 0.00 0.00 90 1015.6
20260902035510 24 283 0.0 0.0 0.00 0.00 0.00 91 1015.7
20260902035015 24 237 0.0 1.6 0.00 0.00 0.00 91 1015.6
20260902034608 24 0 0.0 1.6 0.00 0.00 0.00 91 1015.7
20260902034528 24 224 0.0 1.6 0.00 0.00 0.00 91 1015.7
20260902034015 24 155 0.0 1.6 0.00 0.00 0.00 91 1015.6
20260902033514 24 220 0.0 0.0 0.00 0.00 0.00 91 1015.7
20260902033108 24 0 0.0 0.0 0.00 0.00 0.00 91 1015.8
20260902033028 24 234 0.0 0.0 0.00 0.00 0.00 91 1015.7
20260902032517 24 229 0.0 0.0 0.00 0.00 0.00 91 1015.8
20260902032012 23 243 0.0 0.0 0.00 0.00 0.00 91 1015.7
20260902031606 24 0 0.0 0.0 0.00 0.00 0.00 91 1015.8
20260902031526 24 242 0.0 0.0 0.00 0.00 0.00 91 1015.8
20260902031009 24 245 0.0 0.0 0.00 0.00 0.00 91 1015.9
20260902030515 24 245 0.0 0.0 0.00 0.00 0.00 91 1015.8
20260902030027 24 245 0.0 0.0 0.00 0.00 0.00 90 1015.8
20260902025513 24 245 0.0 0.0 0.00 0.00 0.00 90 1015.8
20260902025013 24 245 0.0 0.0 0.00 0.00 0.00 90 1015.8
20260902024601 24 0 0.0 0.0 0.00 0.00 0.00 90 1015.8
20260902024527 24 245 0.0 0.0 0.00 0.00 0.00 89 1015.7
20260902024003 24 245 0.0 0.0 0.00 0.00 0.00 89 1015.6
20260902023506 24 244 0.0 1.6 0.00 0.00 0.00 89 1015.8
20260902023105 24 0 0.0 1.6 0.00 0.00 0.00 89 1015.7
20260902023018 24 244 0.0 1.6 0.00 0.00 0.00 89 1015.7
20260902022507 24 229 0.0 1.6 0.00 0.00 0.00 89 1015.5
20260902022007 24 253 0.0 1.6 0.00 0.00 0.00 89 1015.5
20260902021603 24 0 0.0 1.6 0.00 0.00 0.00 89 1015.7
20260902021520 24 250 0.0 1.6 0.00 0.00 0.00 89 1015.6
20260902021007 25 246 0.0 0.0 0.00 0.00 0.00 89 1015.6
20260902020515 25 246 0.0 0.0 0.00 0.00 0.00 89 1015.4
20260902020105 25 0 0.0 0.0 0.00 0.00 0.00 89 1015.7
20260902020023 25 246 0.0 0.0 0.00 0.00 0.00 89 1015.4
20260902015511 25 246 0.0 0.0 0.00 0.00 0.00 89 1015.5
20260902015003 25 246 0.0 0.0 0.00 0.00 0.00 89 1015.5
20260902014600 25 0 0.0 0.0 0.00 0.00 0.00 89 1015.6
20260902014504 25 246 0.0 0.0 0.00 0.00 0.00 89 1015.4
20260902014003 25 246 0.0 0.0 0.00 0.00 0.00 89 1015.5
20260902013503 25 246 0.0 1.6 0.00 0.00 0.00 89 1015.4
20260902013059 25 0 0.0 1.6 0.00 0.00 0.00 89 1015.4
20260902013007 25 231 0.0 1.6 0.00 0.00 0.00 89 1015.3
20260902012506 25 243 0.0 0.0 0.00 0.00 0.00 89 1015.3
20260902012006 25 243 0.0 0.0 0.00 0.00 0.00 89 1015.2
20260902011608 25 0 0.0 0.0 0.00 0.00 0.00 89 1015.3
20260902011519 25 243 0.0 0.0 0.00 0.00 0.00 89 1015.2
20260902011008 25 243 0.0 0.0 0.00 0.00 0.00 88 1015.2
20260902010507 25 243 0.0 0.0 0.00 0.00 0.00 87 1015.2
20260902010101 26 0 0.0 0.0 0.00 0.00 0.00 87 1015.3
20260902010031 26 243 0.0 0.0 0.00 0.00 0.00 87 1015.1
20260902005509 26 243 0.0 0.0 0.00 0.00 0.00 86 1015.0
20260902005013 26 243 0.0 0.0 0.00 0.00 0.00 85 1015.1
20260902004608 26 0 0.0 0.0 0.00 0.00 0.00 84 1015.2
20260902004527 26 243 0.0 0.0 0.00 0.00 0.00 84 1015.1
20260902004011 27 243 0.0 0.0 0.00 0.00 0.00 82 1015.1
20260902003503 27 243 0.0 0.0 0.00 0.00 0.00 81 1015.0
20260902003105 28 0 0.0 0.0 0.00 0.00 0.00 80 1015.2
20260902003005 28 243 0.0 0.0 0.00 0.00 0.00 79 1015.0
20260902002503 29 243 0.0 0.0 0.00 0.00 0.00 78 1015.0
20260902002008 30 243 0.0 0.0 0.00 0.00 0.00 76 1015.0
20260902001607 30 0 0.0 0.0 0.00 0.00 0.00 74 1015.2
20260902001509 30 243 0.0 0.0 0.00 0.00 0.00 74 1015.0
20260902001003 31 243 0.0 0.0 0.00 0.00 0.00 73 1015.0
20260902000508 31 243 0.0 0.0 0.00 0.00 0.00 71 1015.0
20260902000101 32 0 0.0 0.0 0.00 0.00 0.00 70 1015.2
20260902000031 32 243 0.0 0.0 0.00 0.00 0.00 70 1015.0
20260901235509 32 243 0.0 0.0 0.00 0.00 0.00 69 1015.1
20260901235010 33 243 0.0 0.0 0.00 0.00 0.00 68 1015.1
20260901234613 33 0 0.0 0.0 0.00 0.00 0.00 68 1015.2
20260901234520 33 243 0.0 0.0 0.00 0.00 0.00 68 1015.1
20260901234013 33 243 0.0 0.0 0.00 0.00 0.00 67 1015.2
20260901233509 33 243 0.0 0.0 0.00 0.00 0.00 67 1015.2
20260901233105 33 0 0.0 0.0 0.00 0.00 0.00 67 1015.2
20260901233026 33 243 0.0 0.0 0.00 0.00 0.00 67 1015.2
20260901232512 34 243 0.0 0.0 0.00 0.00 0.00 66 1015.3
20260901232004 34 243 0.0 0.0 0.00 0.00 0.00 65 1015.2
20260901231605 34 0 0.0 1.6 0.00 0.00 0.00 65 1015.3
20260901231508 34 243 0.0 1.6 0.00 0.00 0.00 64 1015.2
20260901231004 34 243 0.0 1.6 0.00 0.00 0.00 64 1015.3
20260901230504 35 221 0.0 0.0 0.00 0.00 0.00 64 1015.3
20260901230108 35 0 0.0 1.6 0.00 0.00 0.00 64 1015.3
20260901230026 35 221 0.0 1.6 0.00 0.00 0.00 65 1015.3
20260901225507 35 134 0.0 1.6 0.00 0.00 0.00 65 1015.3
20260901225009 35 264 0.0 1.6 0.00 0.00 0.00 65 1015.3
20260901224605 35 0 0.0 1.6 0.00 0.00 0.00 64 1015.4
20260901224531 35 264 0.0 1.6 0.00 0.00 0.00 63 1015.3
20260901224010 35 247 0.0 1.6 0.00 0.00 0.00 63 1015.4
20260901223509 35 246 0.0 1.6 0.00 0.00 0.00 64 1015.3
20260901223104 34 246 0.0 1.6 0.00 0.00 0.00 64 1015.5
20260901223042 34 256 0.0 1.6 0.00 0.00 0.00 65 1015.3
20260901222511 34 262 0.0 4.8 0.00 0.00 0.00 64 1015.3
20260901222011 34 273 0.0 4.8 0.00 0.00 0.00 62 1015.3
20260901221608 34 255 0.0 3.2 0.00 0.00 0.00 61 1015.4
20260901221528 34 285 0.0 3.2 0.00 0.00 0.00 60 1015.2
20260901221016 34 278 0.0 3.2 0.00 0.00 0.00 61 1015.2
20260901220503 33 285 1.6 4.8 0.00 0.00 0.00 58 1015.2
20260901220121 33 307 1.6 4.8 0.00 0.00 0.00 60 1015.4
20260901220009 33 273 1.6 4.8 0.00 0.00 0.00 60 1015.3
20260901215505 33 246 1.6 4.8 0.00 0.00 0.00 61 1015.2
20260901215007 33 200 1.6 4.8 0.00 0.00 0.00 61 1015.1
20260901214603 33 0 1.6 4.8 0.00 0.00 0.00 60 1015.3
20260901214516 33 248 1.6 4.8 0.00 0.00 0.00 61 1015.1
20260901214008 33 281 1.6 4.8 0.00 0.00 0.00 58 1015.1
20260901213508 33 269 1.6 4.8 0.00 0.00 0.00 60 1015.2
20260901213114 33 271 1.6 6.4 0.00 0.00 0.00 61 1015.3
20260901213031 33 254 1.6 6.4 0.00 0.00 0.00 61 1015.2
20260901212511 33 297 3.2 6.4 0.00 0.00 0.00 61 1015.2
20260901212012 33 286 1.6 6.4 0.00 0.00 0.00 61 1015.2
20260901211604 33 263 3.2 8.0 0.00 0.00 0.00 59 1015.4
20260901211528 33 242 3.2 8.0 0.00 0.00 0.00 58 1015.2
20260901211015 33 246 3.2 8.0 0.00 0.00 0.00 60 1015.2
20260901210515 33 270 1.6 8.0 0.00 0.00 0.00 63 1015.2
20260901210109 33 286 3.2 8.0 0.00 0.00 0.00 61 1015.5
20260901210038 33 288 3.2 8.0 0.00 0.00 0.00 61 1015.3
20260901205517 33 277 1.6 6.4 0.00 0.00 0.00 63 1015.3
20260901205002 33 283 3.2 6.4 0.00 0.00 0.00 59 1015.3
20260901204605 33 285 3.2 6.4 0.00 0.00 0.00 60 1015.5
20260901204515 33 306 3.2 6.4 0.00 0.00 0.00 61 1015.3
20260901204006 33 273 3.2 6.4 0.00 0.00 0.00 60 1015.3
20260901203507 33 287 3.2 8.0 0.00 0.00 0.00 62 1015.4
20260901203106 33 295 3.2 8.0 0.00 0.00 0.00 64 1015.5
20260901203019 33 275 3.2 8.0 0.00 0.00 0.00 63 1015.3
20260901202509 33 276 3.2 8.0 0.00 0.00 0.00 61 1015.4
20260901202009 33 281 3.2 8.0 0.00 0.00 0.00 62 1015.3
20260901201605 33 285 3.2 8.0 0.00 0.00 0.00 60 1015.5
20260901201522 33 284 3.2 8.0 0.00 0.00 0.00 59 1015.3
20260901201011 33 268 3.2 6.4 0.00 0.00 0.00 61 1015.3
20260901200512 33 291 1.6 6.4 0.00 0.00 0.00 60 1015.3
20260901200104 33 276 3.2 8.0 0.00 0.00 0.00 62 1015.6
20260901200041 33 282 3.2 8.0 0.00 0.00 0.00 62 1015.5
20260901195512 33 288 3.2 8.0 0.00 0.00 0.00 61 1015.6
20260901195013 33 260 4.8 8.0 0.00 0.00 0.00 60 1015.6
20260901194607 33 303 4.8 8.0 0.00 0.00 0.00 62 1015.7
20260901194542 33 309 4.8 8.0 0.00 0.00 0.00 60 1015.6
20260901194016 33 269 3.2 12.9 0.00 0.00 0.00 63 1015.6
20260901193507 33 290 3.2 12.9 0.00 0.00 0.00 62 1015.6
20260901193116 33 193 3.2 9.7 0.00 0.00 0.00 63 1015.8
20260901193011 33 277 3.2 9.7 0.00 0.00 0.00 61 1015.7
20260901192505 33 280 4.8 9.7 0.00 0.00 0.00 62 1015.7
20260901192009 33 284 3.2 9.7 0.00 0.00 0.00 63 1015.8
20260901191607 33 299 3.2 9.7 0.00 0.00 0.00 60 1015.9
20260901191528 33 285 4.8 9.7 0.00 0.00 0.00 62 1015.8
20260901191012 33 301 3.2 8.0 0.00 0.00 0.00 62 1015.8
20260901190509 33 290 4.8 8.0 0.00 0.00 0.00 63 1015.8
20260901190023 33 288 3.2 9.7 0.00 0.00 0.00 63 1015.8
20260901185516 33 277 4.8 9.7 0.00 0.00 0.00 62 1015.9
20260901185011 33 304 3.2 8.0 0.00 0.00 0.00 63 1016.0
20260901184603 33 221 3.2 8.0 0.00 0.00 0.00 66 1016.2
20260901184529 33 259 3.2 8.0 0.00 0.00 0.00 66 1015.9
20260901184017 33 219 3.2 8.0 0.00 0.00 0.00 63 1015.9
20260901183518 33 284 4.8 9.7 0.00 0.00 0.00 63 1015.9
20260901183103 33 276 4.8 9.7 0.00 0.00 0.00 65 1016.2
20260901183030 33 271 4.8 9.7 0.00 0.00 0.00 65 1015.9
20260901182515 32 288 6.4 9.7 0.00 0.00 0.00 64 1016.0
20260901182003 32 294 3.2 12.9 0.00 0.00 0.00 66 1016.1
20260901181603 32 288 6.4 12.9 0.00 0.00 0.00 65 1016.2
20260901181518 32 274 6.4 12.9 0.00 0.00 0.00 63 1016.1
20260901181008 32 266 4.8 11.3 0.00 0.00 0.00 65 1016.2
20260901180511 32 283 4.8 11.3 0.00 0.00 0.00 66 1016.1
20260901180030 32 252 8.0 11.3 0.00 0.00 0.00 63 1016.1
20260901175513 32 274 6.4 11.3 0.00 0.00 0.00 63 1016.1
20260901175011 32 261 4.8 8.0 0.00 0.00 0.00 65 1016.3
20260901174605 32 292 3.2 6.4 0.00 0.00 0.00 67 1016.4
20260901174528 32 278 4.8 6.4 0.00 0.00 0.00 67 1016.4
20260901174017 32 260 3.2 8.0 0.00 0.00 0.00 67 1016.3
20260901173504 32 281 4.8 8.0 0.00 0.00 0.00 65 1016.4
20260901173102 32 183 4.8 11.3 0.00 0.00 0.00 66 1016.6
20260901173006 32 282 4.8 11.3 0.00 0.00 0.00 66 1016.4
20260901172504 32 285 4.8 11.3 0.00 0.00 0.00 68 1016.4
20260901172004 32 264 3.2 9.7 0.00 0.00 0.00 69 1016.3
20260901171605 32 289 4.8 11.3 0.00 0.00 0.00 68 1016.4
20260901171510 32 298 4.8 11.3 0.00 0.00 0.00 67 1016.3
20260901171004 31 234 4.8 12.9 0.00 0.00 0.00 67 1016.6
20260901170507 31 259 6.4 12.9 0.00 0.00 0.00 67 1016.5
20260901170121 31 256 6.4 11.3 0.00 0.00 0.00 67 1016.6
20260901170028 31 278 6.4 11.3 0.00 0.00 0.00 67 1016.4
20260901165507 31 296 4.8 9.7 0.00 0.00 0.00 69 1016.5
20260901165015 31 241 6.4 9.7 0.00 0.00 0.00 68 1016.6
20260901164607 31 308 4.8 9.7 0.00 0.00 0.00 69 1016.5
20260901164523 31 228 4.8 9.7 0.00 0.00 0.00 69 1016.6
20260901164013 31 244 4.8 9.7 0.00 0.00 0.00 70 1016.5
20260901163513 31 286 4.8 9.7 0.00 0.00 0.00 70 1016.6
20260901163108 31 296 4.8 9.7 0.00 0.00 0.00 71 1016.5
20260901163027 31 228 4.8 9.7 0.00 0.00 0.00 70 1016.6
20260901162512 31 286 4.8 8.0 0.00 0.00 0.00 71 1016.7
20260901162004 30 288 3.2 8.0 0.00 0.00 0.00 69 1016.6
20260901161602 30 275 4.8 8.0 0.00 0.00 0.00 69 1016.7
20260901161508 30 295 4.8 8.0 0.00 0.00 0.00 71 1016.7
20260901161004 30 292 4.8 8.0 0.00 0.00 0.00 69 1016.7
20260901160508 30 292 3.2 9.7 0.00 0.00 0.00 71 1016.7
20260901160017 30 290 4.8 9.7 0.00 0.00 0.00 71 1016.7
20260901155507 30 288 3.2 9.7 0.00 0.00 0.00 72 1016.6
20260901155008 30 238 4.8 9.7 0.00 0.00 0.00 73 1016.6
20260901154640 30 282 4.8 12.9 0.00 0.00 0.00 73 1016.6
20260901154519 30 264 4.8 12.9 0.00 0.00 0.00 73 1016.7
20260901154008 29 266 6.4 12.9 0.00 0.00 0.00 70 1016.7
20260901153508 29 219 6.4 12.9 0.00 0.00 0.00 71 1016.6
20260901153117 29 288 6.4 12.9 0.00 0.00 0.00 71 1016.6
20260901153027 29 286 6.4 12.9 0.00 0.00 0.00 73 1016.5
20260901152511 29 285 4.8 11.3 0.00 0.00 0.00 74 1016.6
20260901152014 29 249 4.8 9.7 0.00 0.00 0.00 73 1016.6
20260901151605 29 249 4.8 12.9 0.00 0.00 0.00 73 1016.5
20260901151529 28 263 4.8 12.9 0.00 0.00 0.00 74 1016.4
20260901151013 28 267 6.4 12.9 0.00 0.00 0.00 73 1016.5
20260901150506 28 274 4.8 12.9 0.00 0.00 0.00 74 1016.4
20260901150111 28 275 6.4 12.9 0.00 0.00 0.00 74 1016.5
20260901150009 28 307 6.4 12.9 0.00 0.00 0.00 75 1016.5
20260901145504 28 261 6.4 12.9 0.00 0.00 0.00 74 1016.5
20260901145006 28 295 6.4 12.9 0.00 0.00 0.00 74 1016.5
20260901144603 28 288 8.0 12.9 0.00 0.00 0.00 74 1016.5
20260901144515 28 294 8.0 12.9 0.00 0.00 0.00 74 1016.4
20260901144007 28 200 6.4 12.9 0.00 0.00 0.00 76 1016.5
20260901143508 27 299 9.7 12.9 0.00 0.00 0.00 74 1016.4
20260901143106 27 280 4.8 11.3 0.00 0.00 0.00 77 1016.4
20260901143023 27 257 4.8 11.3 0.00 0.00 0.00 76 1016.5
20260901142511 27 283 6.4 11.3 0.00 0.00 0.00 77 1016.5
20260901142013 27 289 8.0 14.5 0.00 0.00 0.00 76 1016.5
20260901141603 27 278 8.0 14.5 0.00 0.00 0.00 77 1016.4
20260901141536 27 303 8.0 14.5 0.00 0.00 0.00 76 1016.4
20260901141014 27 285 4.8 11.3 0.00 0.00 0.00 78 1016.5
20260901140512 27 269 6.4 12.9 0.00 0.00 0.00 77 1016.4
20260901140109 26 250 4.8 14.5 0.00 0.00 0.00 78 1016.5
20260901140031 26 290 4.8 14.5 0.00 0.00 0.00 79 1016.5
20260901135519 26 301 8.0 14.5 0.00 0.00 0.00 77 1016.5
20260901135002 26 290 6.4 14.5 0.00 0.00 0.00 77 1016.5
20260901134608 26 291 6.4 9.7 0.00 0.00 0.00 78 1016.5
20260901134513 26 301 6.4 9.7 0.00 0.00 0.00 78 1016.5
20260901134003 26 273 3.2 8.0 0.00 0.00 0.00 79 1016.6
20260901133505 26 308 4.8 8.0 0.00 0.00 0.00 79 1016.5
20260901133112 26 252 3.2 9.7 0.00 0.00 0.00 81 1016.4
20260901133015 26 286 3.2 9.7 0.00 0.00 0.00 81 1016.4
20260901132509 26 226 3.2 9.7 0.00 0.00 0.00 80 1016.4
20260901132011 26 281 3.2 6.4 0.00 0.00 0.00 81 1016.4
20260901131603 26 265 3.2 8.0 0.00 0.00 0.00 81 1016.3
20260901131531 25 276 4.8 8.0 0.00 0.00 0.00 81 1016.4
20260901131011 25 268 4.8 8.0 0.00 0.00 0.00 81 1016.4
20260901130515 25 289 3.2 8.0 0.00 0.00 0.00 82 1016.3
20260901130029 25 289 3.2 8.0 0.00 0.00 0.00 82 1016.2
20260901125514 25 307 4.8 8.0 0.00 0.00 0.00 82 1016.2
20260901125016 25 292 3.2 9.7 0.00 0.00 0.00 83 1016.2
20260901124606 25 245 4.8 9.7 0.00 0.00 0.00 83 1016.3
20260901124533 25 294 4.8 9.7 0.00 0.00 0.00 83 1016.3
20260901124021 25 279 3.2 8.0 0.00 0.00 0.00 83 1016.3
20260901123504 24 278 3.2 9.7 0.00 0.00 0.00 83 1016.2
20260901123119 24 263 3.2 9.7 0.00 0.00 0.00 84 1016.2
20260901123014 24 290 3.2 9.7 0.00 0.00 0.00 84 1016.2
20260901122506 24 279 4.8 9.7 0.00 0.00 0.00 84 1016.2
20260901122007 24 264 3.2 9.7 0.00 0.00 0.00 84 1016.1
20260901121607 23 291 4.8 8.0 0.00 0.00 0.00 84 1016.1
20260901121524 23 250 4.8 8.0 0.00 0.00 0.00 84 1016.2
20260901121011 23 255 3.2 9.7 0.00 0.00 0.00 85 1016.0